Year,Month,Day,Hour,Minute,Value (Times are PST for temperature in C)
2019,03,31,00,00,7.80
2019,03,31,00,01,7.80
2019,03,31,00,02,7.80
2019,03,31,00,03,7.70
2019,03,31,00,04,7.70
2019,03,31,00,05,7.70
2019,03,31,00,06,7.70
2019,03,31,00,07,7.70
2019,03,31,00,08,7.70
2019,03,31,00,09,7.60
2019,03,31,00,10,7.60
2019,03,31,00,11,7.60
2019,03,31,00,12,7.60
2019,03,31,00,13,7.60
2019,03,31,00,14,7.60
2019,03,31,00,15,7.50
2019,03,31,00,16,7.50
2019,03,31,00,17,7.40
2019,03,31,00,18,7.40
2019,03,31,00,19,7.30
2019,03,31,00,20,7.30
2019,03,31,00,21,7.20
2019,03,31,00,22,7.20
2019,03,31,00,23,7.20
2019,03,31,00,24,7.10
2019,03,31,00,25,7.10
2019,03,31,00,26,7.10
2019,03,31,00,27,7.10
2019,03,31,00,28,7.00
2019,03,31,00,29,7.00
2019,03,31,00,30,7.10
2019,03,31,00,31,7.00
2019,03,31,00,32,7.00
2019,03,31,00,33,7.00
2019,03,31,00,34,7.00
2019,03,31,00,35,7.00
2019,03,31,00,36,7.00
2019,03,31,00,37,6.90
2019,03,31,00,38,6.90
2019,03,31,00,39,6.90
2019,03,31,00,40,6.90
2019,03,31,00,41,6.80
2019,03,31,00,42,6.80
2019,03,31,00,43,6.80
2019,03,31,00,44,6.80
2019,03,31,00,45,6.70
2019,03,31,00,46,6.70
2019,03,31,00,47,6.70
2019,03,31,00,48,6.60
2019,03,31,00,49,6.60
2019,03,31,00,50,6.60
2019,03,31,00,51,6.70
2019,03,31,00,52,6.70
2019,03,31,00,53,6.70
2019,03,31,00,54,6.80
2019,03,31,00,55,6.80
2019,03,31,00,56,6.90
2019,03,31,00,57,7.00
2019,03,31,00,58,7.00
2019,03,31,00,59,7.10
2019,03,31,01,00,7.10
2019,03,31,01,01,7.10
2019,03,31,01,02,7.10
2019,03,31,01,03,7.10
2019,03,31,01,04,7.10
2019,03,31,01,05,7.00
2019,03,31,01,06,7.00
2019,03,31,01,07,7.00
2019,03,31,01,08,6.90
2019,03,31,01,09,6.90
2019,03,31,01,10,6.90
2019,03,31,01,11,6.80
2019,03,31,01,12,6.80
2019,03,31,01,13,6.80
2019,03,31,01,14,6.80
2019,03,31,01,15,6.80
2019,03,31,01,16,6.70
2019,03,31,01,17,6.70
2019,03,31,01,18,6.70
2019,03,31,01,19,6.70
2019,03,31,01,20,6.70
2019,03,31,01,21,6.80
2019,03,31,01,22,6.80
2019,03,31,01,23,6.80
2019,03,31,01,24,6.80
2019,03,31,01,25,6.90
2019,03,31,01,26,6.90
2019,03,31,01,27,6.90
2019,03,31,01,28,6.90
2019,03,31,01,29,7.00
2019,03,31,01,30,7.00
2019,03,31,01,31,7.00
2019,03,31,01,32,7.00
2019,03,31,01,33,6.90
2019,03,31,01,34,6.90
2019,03,31,01,35,6.90
2019,03,31,01,36,6.90
2019,03,31,01,37,6.90
2019,03,31,01,38,6.90
2019,03,31,01,39,6.90
2019,03,31,01,40,6.80
2019,03,31,01,41,6.80
2019,03,31,01,42,6.70
2019,03,31,01,43,6.70
2019,03,31,01,44,6.60
2019,03,31,01,45,6.60
2019,03,31,01,46,6.60
2019,03,31,01,47,6.50
2019,03,31,01,48,6.50
2019,03,31,01,49,6.50
2019,03,31,01,50,6.40
2019,03,31,01,51,6.40
2019,03,31,01,52,6.30
2019,03,31,01,53,6.30
2019,03,31,01,54,6.30
2019,03,31,01,55,6.30
2019,03,31,01,56,6.30
2019,03,31,01,57,6.20
2019,03,31,01,58,6.20
2019,03,31,01,59,6.20
2019,03,31,02,00,6.10
2019,03,31,02,01,6.10
2019,03,31,02,02,6.10
2019,03,31,02,03,6.10
2019,03,31,02,04,6.10
2019,03,31,02,05,6.20
2019,03,31,02,06,6.20
2019,03,31,02,07,6.20
2019,03,31,02,08,6.20
2019,03,31,02,09,6.30
2019,03,31,02,10,6.30
2019,03,31,02,11,6.30
2019,03,31,02,12,6.30
2019,03,31,02,13,6.30
2019,03,31,02,14,6.30
2019,03,31,02,15,6.30
2019,03,31,02,16,6.30
2019,03,31,02,17,6.30
2019,03,31,02,18,6.30
2019,03,31,02,19,6.40
2019,03,31,02,20,6.40
2019,03,31,02,21,6.40
2019,03,31,02,22,6.50
2019,03,31,02,23,6.50
2019,03,31,02,24,6.50
2019,03,31,02,25,6.50
2019,03,31,02,26,6.60
2019,03,31,02,27,6.60
2019,03,31,02,28,6.60
2019,03,31,02,29,6.60
2019,03,31,02,30,6.60
2019,03,31,02,31,6.60
2019,03,31,02,32,6.60
2019,03,31,02,33,6.60
2019,03,31,02,34,6.60
2019,03,31,02,35,6.60
2019,03,31,02,36,6.60
2019,03,31,02,37,6.60
2019,03,31,02,38,6.50
2019,03,31,02,39,6.50
2019,03,31,02,40,6.50
2019,03,31,02,41,6.50
2019,03,31,02,42,6.50
2019,03,31,02,43,6.40
2019,03,31,02,44,6.40
2019,03,31,02,45,6.40
2019,03,31,02,46,6.40
2019,03,31,02,47,6.30
2019,03,31,02,48,6.30
2019,03,31,02,49,6.30
2019,03,31,02,50,6.30
2019,03,31,02,51,6.30
2019,03,31,02,52,6.30
2019,03,31,02,53,6.30
2019,03,31,02,54,6.30
2019,03,31,02,55,6.30
2019,03,31,02,56,6.30
2019,03,31,02,57,6.30
2019,03,31,02,58,6.30
2019,03,31,02,59,6.30
2019,03,31,03,00,6.30
2019,03,31,03,01,6.30
2019,03,31,03,02,6.30
2019,03,31,03,03,6.30
2019,03,31,03,04,6.20
2019,03,31,03,05,6.20
2019,03,31,03,06,6.20
2019,03,31,03,07,6.10
2019,03,31,03,08,6.10
2019,03,31,03,09,6.10
2019,03,31,03,10,6.10
2019,03,31,03,11,6.10
2019,03,31,03,12,6.10
2019,03,31,03,13,6.10
2019,03,31,03,14,6.10
2019,03,31,03,15,6.10
2019,03,31,03,16,6.10
2019,03,31,03,17,6.10
2019,03,31,03,18,6.10
2019,03,31,03,19,6.10
2019,03,31,03,20,6.10
2019,03,31,03,21,6.10
2019,03,31,03,22,6.10
2019,03,31,03,23,6.10
2019,03,31,03,24,6.10
2019,03,31,03,25,6.10
2019,03,31,03,26,6.10
2019,03,31,03,27,6.10
2019,03,31,03,28,6.00
2019,03,31,03,29,6.00
2019,03,31,03,30,6.00
2019,03,31,03,31,6.00
2019,03,31,03,32,5.90
2019,03,31,03,33,5.90
2019,03,31,03,34,5.90
2019,03,31,03,35,5.90
2019,03,31,03,36,5.90
2019,03,31,03,37,5.80
2019,03,31,03,38,5.80
2019,03,31,03,39,5.80
2019,03,31,03,40,5.80
2019,03,31,03,41,5.80
2019,03,31,03,42,5.80
2019,03,31,03,43,5.70
2019,03,31,03,44,5.70
2019,03,31,03,45,5.70
2019,03,31,03,46,5.70
2019,03,31,03,47,5.60
2019,03,31,03,48,5.60
2019,03,31,03,49,5.60
2019,03,31,03,50,5.60
2019,03,31,03,51,5.60
2019,03,31,03,52,5.70
2019,03,31,03,53,5.70
2019,03,31,03,54,5.70
2019,03,31,03,55,5.70
2019,03,31,03,56,5.70
2019,03,31,03,57,5.70
2019,03,31,03,58,5.80
2019,03,31,03,59,5.80
2019,03,31,04,00,5.80
2019,03,31,04,01,5.70
2019,03,31,04,02,5.70
2019,03,31,04,03,5.70
2019,03,31,04,04,5.70
2019,03,31,04,05,5.70
2019,03,31,04,06,5.70
2019,03,31,04,07,5.80
2019,03,31,04,08,5.80
2019,03,31,04,09,5.80
2019,03,31,04,10,5.80
2019,03,31,04,11,5.80
2019,03,31,04,12,5.80
2019,03,31,04,13,5.90
2019,03,31,04,14,5.90
2019,03,31,04,15,5.90
2019,03,31,04,16,5.90
2019,03,31,04,17,5.90
2019,03,31,04,18,5.80
2019,03,31,04,19,5.80
2019,03,31,04,20,5.80
2019,03,31,04,21,5.70
2019,03,31,04,22,5.70
2019,03,31,04,23,5.70
2019,03,31,04,24,5.70
2019,03,31,04,25,5.60
2019,03,31,04,26,5.60
2019,03,31,04,27,5.50
2019,03,31,04,28,5.40
2019,03,31,04,29,5.40
2019,03,31,04,30,5.40
2019,03,31,04,31,5.30
2019,03,31,04,32,5.30
2019,03,31,04,33,5.20
2019,03,31,04,34,5.20
2019,03,31,04,35,5.20
2019,03,31,04,36,5.10
2019,03,31,04,37,5.10
2019,03,31,04,38,5.10
2019,03,31,04,39,5.00
2019,03,31,04,40,5.00
2019,03,31,04,41,5.00
2019,03,31,04,42,4.90
2019,03,31,04,43,4.90
2019,03,31,04,44,4.90
2019,03,31,04,45,4.90
2019,03,31,04,46,4.90
2019,03,31,04,47,5.00
2019,03,31,04,48,5.00
2019,03,31,04,49,5.00
2019,03,31,04,50,5.00
2019,03,31,04,51,5.00
2019,03,31,04,52,5.00
2019,03,31,04,53,4.90
2019,03,31,04,54,4.90
2019,03,31,04,55,4.90
2019,03,31,04,56,4.90
2019,03,31,04,57,4.90
2019,03,31,04,58,4.90
2019,03,31,04,59,4.90
2019,03,31,05,00,4.90
2019,03,31,05,01,4.90
2019,03,31,05,02,4.80
2019,03,31,05,03,4.80
2019,03,31,05,04,4.80
2019,03,31,05,05,4.80
2019,03,31,05,06,4.80
2019,03,31,05,07,4.80
2019,03,31,05,08,4.80
2019,03,31,05,09,4.80
2019,03,31,05,10,4.80
2019,03,31,05,11,4.80
2019,03,31,05,12,4.80
2019,03,31,05,13,4.80
2019,03,31,05,14,4.80
2019,03,31,05,15,4.80
2019,03,31,05,16,4.80
2019,03,31,05,17,4.80
2019,03,31,05,18,4.70
2019,03,31,05,19,4.70
2019,03,31,05,20,4.70
2019,03,31,05,21,4.70
2019,03,31,05,22,4.70
2019,03,31,05,23,4.70
2019,03,31,05,24,4.70
2019,03,31,05,25,4.70
2019,03,31,05,26,4.70
2019,03,31,05,27,4.70
2019,03,31,05,28,4.70
2019,03,31,05,29,4.70
2019,03,31,05,30,4.70
2019,03,31,05,31,4.70
2019,03,31,05,32,4.70
2019,03,31,05,33,4.70
2019,03,31,05,34,4.70
2019,03,31,05,35,4.70
2019,03,31,05,36,4.60
2019,03,31,05,37,4.60
2019,03,31,05,38,4.50
2019,03,31,05,39,4.40
2019,03,31,05,40,4.40
2019,03,31,05,41,4.40
2019,03,31,05,42,4.40
2019,03,31,05,43,4.30
2019,03,31,05,44,4.30
2019,03,31,05,45,4.30
2019,03,31,05,46,4.30
2019,03,31,05,47,4.30
2019,03,31,05,48,4.30
2019,03,31,05,49,4.30
2019,03,31,05,50,4.20
2019,03,31,05,51,4.20
2019,03,31,05,52,4.20
2019,03,31,05,53,4.20
2019,03,31,05,54,4.20
2019,03,31,05,55,4.20
2019,03,31,05,56,4.20
2019,03,31,05,57,4.20
2019,03,31,05,58,4.30
2019,03,31,05,59,4.30
2019,03,31,06,00,4.30
2019,03,31,06,01,4.30
2019,03,31,06,02,4.30
2019,03,31,06,03,4.30
2019,03,31,06,04,4.30
2019,03,31,06,05,4.30
2019,03,31,06,06,4.30
2019,03,31,06,07,4.30
2019,03,31,06,08,4.30
2019,03,31,06,09,4.20
2019,03,31,06,10,4.20
2019,03,31,06,11,4.20
2019,03,31,06,12,4.20
2019,03,31,06,13,4.20
2019,03,31,06,14,4.20
2019,03,31,06,15,4.20
2019,03,31,06,16,4.20
2019,03,31,06,17,4.10
2019,03,31,06,18,4.10
2019,03,31,06,19,4.10
2019,03,31,06,20,4.10
2019,03,31,06,21,4.10
2019,03,31,06,22,4.10
2019,03,31,06,23,4.10
2019,03,31,06,24,4.00
2019,03,31,06,25,4.00
2019,03,31,06,26,3.90
2019,03,31,06,27,3.90
2019,03,31,06,28,3.90
2019,03,31,06,29,3.80
2019,03,31,06,30,3.80
2019,03,31,06,31,3.80
2019,03,31,06,32,3.80
2019,03,31,06,33,3.80
2019,03,31,06,34,3.80
2019,03,31,06,35,3.80
2019,03,31,06,36,3.80
2019,03,31,06,37,3.80
2019,03,31,06,38,3.80
2019,03,31,06,39,3.80
2019,03,31,06,40,3.80
2019,03,31,06,41,3.80
2019,03,31,06,42,3.80
2019,03,31,06,43,3.80
2019,03,31,06,44,3.70
2019,03,31,06,45,3.70
2019,03,31,06,46,3.70
2019,03,31,06,47,3.70
2019,03,31,06,48,3.60
2019,03,31,06,49,3.60
2019,03,31,06,50,3.60
2019,03,31,06,51,3.50
2019,03,31,06,52,3.50
2019,03,31,06,53,3.50
2019,03,31,06,54,3.40
2019,03,31,06,55,3.40
2019,03,31,06,56,3.40
2019,03,31,06,57,3.40
2019,03,31,06,58,3.40
2019,03,31,06,59,3.40
2019,03,31,07,00,3.40
2019,03,31,07,01,3.40
2019,03,31,07,02,3.40
2019,03,31,07,03,3.40
2019,03,31,07,04,3.40
2019,03,31,07,05,3.40
2019,03,31,07,06,3.30
2019,03,31,07,07,3.30
2019,03,31,07,08,3.30
2019,03,31,07,09,3.30
2019,03,31,07,10,3.20
2019,03,31,07,11,3.20
2019,03,31,07,12,3.20
2019,03,31,07,13,3.10
2019,03,31,07,14,3.10
2019,03,31,07,15,3.10
2019,03,31,07,16,3.10
2019,03,31,07,17,3.10
2019,03,31,07,18,3.00
2019,03,31,07,19,3.00
2019,03,31,07,20,3.00
2019,03,31,07,21,3.00
2019,03,31,07,22,3.00
2019,03,31,07,23,3.00
2019,03,31,07,24,3.00
2019,03,31,07,25,3.00
2019,03,31,07,26,3.00
2019,03,31,07,27,3.00
2019,03,31,07,28,3.00
2019,03,31,07,29,3.00
2019,03,31,07,30,3.00
2019,03,31,07,31,3.00
2019,03,31,07,32,3.00
2019,03,31,07,33,3.00
2019,03,31,07,34,3.00
2019,03,31,07,35,3.00
2019,03,31,07,36,3.00
2019,03,31,07,37,3.10
2019,03,31,07,38,3.10
2019,03,31,07,39,3.10
2019,03,31,07,40,3.20
2019,03,31,07,41,3.20
2019,03,31,07,42,3.20
2019,03,31,07,43,3.30
2019,03,31,07,44,3.30
2019,03,31,07,45,3.30
2019,03,31,07,46,3.40
2019,03,31,07,47,3.40
2019,03,31,07,48,3.50
2019,03,31,07,49,3.60
2019,03,31,07,50,3.60
2019,03,31,07,51,3.70
2019,03,31,07,52,3.80
2019,03,31,07,53,3.80
2019,03,31,07,54,3.90
2019,03,31,07,55,4.00
2019,03,31,07,56,4.00
2019,03,31,07,57,4.10
2019,03,31,07,58,4.10
2019,03,31,07,59,4.20
2019,03,31,08,00,4.30
2019,03,31,08,01,4.40
2019,03,31,08,02,4.40
2019,03,31,08,03,4.50
2019,03,31,08,04,4.60
2019,03,31,08,05,4.70
2019,03,31,08,06,4.70
2019,03,31,08,07,4.70
2019,03,31,08,08,4.80
2019,03,31,08,09,4.80
2019,03,31,08,10,4.80
2019,03,31,08,11,4.90
2019,03,31,08,12,4.90
2019,03,31,08,13,5.00
2019,03,31,08,14,5.00
2019,03,31,08,15,5.10
2019,03,31,08,16,5.10
2019,03,31,08,17,5.20
2019,03,31,08,18,5.20
2019,03,31,08,19,5.20
2019,03,31,08,20,5.20
2019,03,31,08,21,5.30
2019,03,31,08,22,5.30
2019,03,31,08,23,5.40
2019,03,31,08,24,5.40
2019,03,31,08,25,5.50
2019,03,31,08,26,5.60
2019,03,31,08,27,5.60
2019,03,31,08,28,5.70
2019,03,31,08,29,5.80
2019,03,31,08,30,5.90
2019,03,31,08,31,6.00
2019,03,31,08,32,6.00
2019,03,31,08,33,6.10
2019,03,31,08,34,6.10
2019,03,31,08,35,6.20
2019,03,31,08,36,6.30
2019,03,31,08,37,6.30
2019,03,31,08,38,6.40
2019,03,31,08,39,6.50
2019,03,31,08,40,6.50
2019,03,31,08,41,6.60
2019,03,31,08,42,6.70
2019,03,31,08,43,6.80
2019,03,31,08,44,6.80
2019,03,31,08,45,6.80
2019,03,31,08,46,6.90
2019,03,31,08,47,7.00
2019,03,31,08,48,7.10
2019,03,31,08,49,7.20
2019,03,31,08,50,7.20
2019,03,31,08,51,7.30
2019,03,31,08,52,7.30
2019,03,31,08,53,7.40
2019,03,31,08,54,7.50
2019,03,31,08,55,7.50
2019,03,31,08,56,7.60
2019,03,31,08,57,7.60
2019,03,31,08,58,7.70
2019,03,31,08,59,7.70
2019,03,31,09,00,7.70
2019,03,31,09,01,7.80
2019,03,31,09,02,7.90
2019,03,31,09,03,7.90
2019,03,31,09,04,7.90
2019,03,31,09,05,8.00
2019,03,31,09,06,8.00
2019,03,31,09,07,8.10
2019,03,31,09,08,8.10
2019,03,31,09,09,8.20
2019,03,31,09,10,8.20
2019,03,31,09,11,8.30
2019,03,31,09,12,8.30
2019,03,31,09,13,8.40
2019,03,31,09,14,8.40
2019,03,31,09,15,8.50
2019,03,31,09,16,8.50
2019,03,31,09,17,8.50
2019,03,31,09,18,8.60
2019,03,31,09,19,8.60
2019,03,31,09,20,8.70
2019,03,31,09,21,8.70
2019,03,31,09,22,8.70
2019,03,31,09,23,8.70
2019,03,31,09,24,8.60
2019,03,31,09,25,8.60
2019,03,31,09,26,8.60
2019,03,31,09,27,8.60
2019,03,31,09,28,8.50
2019,03,31,09,29,8.50
2019,03,31,09,30,8.50
2019,03,31,09,31,8.50
2019,03,31,09,32,8.50
2019,03,31,09,33,8.60
2019,03,31,09,34,8.60
2019,03,31,09,35,8.60
2019,03,31,09,36,8.60
2019,03,31,09,37,8.60
2019,03,31,09,38,8.70
2019,03,31,09,39,8.70
2019,03,31,09,40,8.70
2019,03,31,09,41,8.80
2019,03,31,09,42,8.80
2019,03,31,09,43,8.90
2019,03,31,09,44,8.90
2019,03,31,09,45,9.00
2019,03,31,09,46,9.00
2019,03,31,09,47,9.00
2019,03,31,09,48,9.10
2019,03,31,09,49,9.10
2019,03,31,09,50,9.20
2019,03,31,09,51,9.20
2019,03,31,09,52,9.30
2019,03,31,09,53,9.30
2019,03,31,09,54,9.40
2019,03,31,09,55,9.40
2019,03,31,09,56,9.50
2019,03,31,09,57,9.50
2019,03,31,09,58,9.60
2019,03,31,09,59,9.60
2019,03,31,10,00,9.60
2019,03,31,10,01,9.70
2019,03,31,10,02,9.80
2019,03,31,10,03,9.80
2019,03,31,10,04,9.90
2019,03,31,10,05,9.90
2019,03,31,10,06,9.90
2019,03,31,10,07,10.00
2019,03,31,10,08,10.10
2019,03,31,10,09,10.10
2019,03,31,10,10,10.10
2019,03,31,10,11,10.10
2019,03,31,10,12,10.10
2019,03,31,10,13,10.20
2019,03,31,10,14,10.20
2019,03,31,10,15,10.20
2019,03,31,10,16,10.20
2019,03,31,10,17,10.20
2019,03,31,10,18,10.30
2019,03,31,10,19,10.30
2019,03,31,10,20,10.30
2019,03,31,10,21,10.40
2019,03,31,10,22,10.50
2019,03,31,10,23,10.50
2019,03,31,10,24,10.60
2019,03,31,10,25,10.70
2019,03,31,10,26,10.70
2019,03,31,10,27,10.80
2019,03,31,10,28,10.90
2019,03,31,10,29,10.90
2019,03,31,10,30,10.90
2019,03,31,10,31,10.90
2019,03,31,10,32,10.90
2019,03,31,10,33,10.90
2019,03,31,10,34,10.90
2019,03,31,10,35,10.90
2019,03,31,10,36,10.90
2019,03,31,10,37,10.90
2019,03,31,10,38,10.90
2019,03,31,10,39,10.90
2019,03,31,10,40,11.00
2019,03,31,10,41,11.00
2019,03,31,10,42,11.10
2019,03,31,10,43,11.10
2019,03,31,10,44,11.10
2019,03,31,10,45,11.20
2019,03,31,10,46,11.20
2019,03,31,10,47,11.30
2019,03,31,10,48,11.40
2019,03,31,10,49,11.40
2019,03,31,10,50,11.40
2019,03,31,10,51,11.30
2019,03,31,10,52,11.30
2019,03,31,10,53,11.30
2019,03,31,10,54,11.30
2019,03,31,10,55,11.20
2019,03,31,10,56,11.20
2019,03,31,10,57,11.20
2019,03,31,10,58,11.20
2019,03,31,10,59,11.20
2019,03,31,11,00,11.20
2019,03,31,11,01,11.20
2019,03,31,11,02,11.20
2019,03,31,11,03,11.20
2019,03,31,11,04,11.20
2019,03,31,11,05,11.20
2019,03,31,11,06,11.20
2019,03,31,11,07,11.20
2019,03,31,11,08,11.30
2019,03,31,11,09,11.30
2019,03,31,11,10,11.30
2019,03,31,11,11,11.40
2019,03,31,11,12,11.40
2019,03,31,11,13,11.50
2019,03,31,11,14,11.60
2019,03,31,11,15,11.70
2019,03,31,11,16,11.70
2019,03,31,11,17,11.70
2019,03,31,11,18,11.80
2019,03,31,11,19,11.80
2019,03,31,11,20,11.80
2019,03,31,11,21,11.80
2019,03,31,11,22,11.80
2019,03,31,11,23,11.90
2019,03,31,11,24,11.90
2019,03,31,11,25,12.00
2019,03,31,11,26,12.10
2019,03,31,11,27,12.10
2019,03,31,11,28,12.20
2019,03,31,11,29,12.30
2019,03,31,11,30,12.30
2019,03,31,11,31,12.40
2019,03,31,11,32,12.50
2019,03,31,11,33,12.60
2019,03,31,11,34,12.70
2019,03,31,11,35,12.70
2019,03,31,11,36,12.70
2019,03,31,11,37,12.70
2019,03,31,11,38,12.80
2019,03,31,11,39,12.90
2019,03,31,11,40,12.90
2019,03,31,11,41,12.90
2019,03,31,11,42,13.00
2019,03,31,11,43,13.10
2019,03,31,11,44,13.20
2019,03,31,11,45,13.20
2019,03,31,11,46,13.30
2019,03,31,11,47,13.40
2019,03,31,11,48,13.40
2019,03,31,11,49,13.40
2019,03,31,11,50,13.40
2019,03,31,11,51,13.40
2019,03,31,11,52,13.50
2019,03,31,11,53,13.60
2019,03,31,11,54,13.60
2019,03,31,11,55,13.70
2019,03,31,11,56,13.80
2019,03,31,11,57,13.90
2019,03,31,11,58,14.00
2019,03,31,11,59,14.00
2019,03,31,12,00,14.00
2019,03,31,12,01,14.00
2019,03,31,12,02,14.00
2019,03,31,12,03,13.90
2019,03,31,12,04,13.90
2019,03,31,12,05,13.90
2019,03,31,12,06,13.80
2019,03,31,12,07,13.80
2019,03,31,12,08,13.80
2019,03,31,12,09,13.70
2019,03,31,12,10,13.70
2019,03,31,12,11,13.70
2019,03,31,12,12,13.70
2019,03,31,12,13,13.70
2019,03,31,12,14,13.70
2019,03,31,12,15,13.70
2019,03,31,12,16,13.80
2019,03,31,12,17,13.80
2019,03,31,12,18,13.80
2019,03,31,12,19,13.80
2019,03,31,12,20,13.80
2019,03,31,12,21,13.80
2019,03,31,12,22,13.80
2019,03,31,12,23,13.80
2019,03,31,12,24,13.80
2019,03,31,12,25,13.80
2019,03,31,12,26,13.80
2019,03,31,12,27,13.80
2019,03,31,12,28,13.80
2019,03,31,12,29,13.80
2019,03,31,12,30,13.80
2019,03,31,12,31,13.90
2019,03,31,12,32,14.00
2019,03,31,12,33,14.10
2019,03,31,12,34,14.10
2019,03,31,12,35,14.10
2019,03,31,12,36,14.00
2019,03,31,12,37,13.90
2019,03,31,12,38,13.80
2019,03,31,12,39,13.80
2019,03,31,12,40,13.80
2019,03,31,12,41,13.80
2019,03,31,12,42,13.80
2019,03,31,12,43,13.80
2019,03,31,12,44,13.80
2019,03,31,12,45,13.80
2019,03,31,12,46,13.90
2019,03,31,12,47,13.90
2019,03,31,12,48,14.00
2019,03,31,12,49,14.00
2019,03,31,12,50,14.10
2019,03,31,12,51,14.10
2019,03,31,12,52,14.10
2019,03,31,12,53,14.10
2019,03,31,12,54,14.20
2019,03,31,12,55,14.20
2019,03,31,12,56,14.20
2019,03,31,12,57,14.30
2019,03,31,12,58,14.30
2019,03,31,12,59,14.30
2019,03,31,13,00,14.30
2019,03,31,13,01,14.30
2019,03,31,13,02,14.40
2019,03,31,13,03,14.40
2019,03,31,13,04,14.60
2019,03,31,13,05,14.70
2019,03,31,13,06,14.80
2019,03,31,13,07,14.80
2019,03,31,13,08,14.80
2019,03,31,13,09,14.90
2019,03,31,13,10,15.00
2019,03,31,13,11,15.10
2019,03,31,13,12,15.20
2019,03,31,13,13,15.20
2019,03,31,13,14,15.20
2019,03,31,13,15,15.20
2019,03,31,13,16,15.20
2019,03,31,13,17,15.30
2019,03,31,13,18,15.20
2019,03,31,13,19,15.20
2019,03,31,13,20,15.10
2019,03,31,13,21,15.00
2019,03,31,13,22,15.00
2019,03,31,13,23,15.00
2019,03,31,13,24,14.90
2019,03,31,13,25,14.90
2019,03,31,13,26,14.80
2019,03,31,13,27,14.80
2019,03,31,13,28,14.80
2019,03,31,13,29,14.80
2019,03,31,13,30,14.80
2019,03,31,13,31,14.80
2019,03,31,13,32,14.90
2019,03,31,13,33,14.90
2019,03,31,13,34,15.00
2019,03,31,13,35,15.00
2019,03,31,13,36,15.10
2019,03,31,13,37,15.00
2019,03,31,13,38,15.00
2019,03,31,13,39,14.90
2019,03,31,13,40,14.90
2019,03,31,13,41,14.80
2019,03,31,13,42,14.80
2019,03,31,13,43,14.80
2019,03,31,13,44,14.80
2019,03,31,13,45,14.80
2019,03,31,13,46,14.80
2019,03,31,13,47,14.80
2019,03,31,13,48,14.80
2019,03,31,13,49,14.80
2019,03,31,13,50,14.80
2019,03,31,13,51,14.80
2019,03,31,13,52,14.80
2019,03,31,13,53,14.90
2019,03,31,13,54,14.90
2019,03,31,13,55,15.00
2019,03,31,13,56,15.00
2019,03,31,13,57,15.10
2019,03,31,13,58,15.10
2019,03,31,13,59,15.10
2019,03,31,14,00,15.10
2019,03,31,14,01,15.10
2019,03,31,14,02,15.20
2019,03,31,14,03,15.20
2019,03,31,14,04,15.20
2019,03,31,14,05,15.30
2019,03,31,14,06,15.30
2019,03,31,14,07,15.30
2019,03,31,14,08,15.20
2019,03,31,14,09,15.20
2019,03,31,14,10,15.20
2019,03,31,14,11,15.20
2019,03,31,14,12,15.20
2019,03,31,14,13,15.20
2019,03,31,14,14,15.20
2019,03,31,14,15,15.30
2019,03,31,14,16,15.30
2019,03,31,14,17,15.40
2019,03,31,14,18,15.40
2019,03,31,14,19,15.40
2019,03,31,14,20,15.40
2019,03,31,14,21,15.40
2019,03,31,14,22,15.40
2019,03,31,14,23,15.40
2019,03,31,14,24,15.40
2019,03,31,14,25,15.40
2019,03,31,14,26,15.50
2019,03,31,14,27,15.50
2019,03,31,14,28,15.60
2019,03,31,14,29,15.60
2019,03,31,14,30,15.70
2019,03,31,14,31,15.70
2019,03,31,14,32,15.70
2019,03,31,14,33,15.70
2019,03,31,14,34,15.80
2019,03,31,14,35,15.80
2019,03,31,14,36,15.80
2019,03,31,14,37,15.80
2019,03,31,14,38,15.70
2019,03,31,14,39,15.70
2019,03,31,14,40,15.70
2019,03,31,14,41,15.70
2019,03,31,14,42,15.60
2019,03,31,14,43,15.50
2019,03,31,14,44,15.50
2019,03,31,14,45,15.50
2019,03,31,14,46,15.50
2019,03,31,14,47,15.50
2019,03,31,14,48,15.60
2019,03,31,14,49,15.70
2019,03,31,14,50,15.80
2019,03,31,14,51,15.90
2019,03,31,14,52,15.90
2019,03,31,14,53,16.00
2019,03,31,14,54,16.00
2019,03,31,14,55,16.10
2019,03,31,14,56,16.10
2019,03,31,14,57,16.20
2019,03,31,14,58,16.20
2019,03,31,14,59,16.20
2019,03,31,15,00,16.20
2019,03,31,15,01,16.20
2019,03,31,15,02,16.20
2019,03,31,15,03,16.20
2019,03,31,15,04,16.20
2019,03,31,15,05,16.30
2019,03,31,15,06,16.30
2019,03,31,15,07,16.30
2019,03,31,15,08,16.30
2019,03,31,15,09,16.30
2019,03,31,15,10,16.40
2019,03,31,15,11,16.40
2019,03,31,15,12,16.40
2019,03,31,15,13,16.40
2019,03,31,15,14,16.40
2019,03,31,15,15,16.40
2019,03,31,15,16,16.50
2019,03,31,15,17,16.50
2019,03,31,15,18,16.50
2019,03,31,15,19,16.60
2019,03,31,15,20,16.60
2019,03,31,15,21,16.60
2019,03,31,15,22,16.60
2019,03,31,15,23,16.60
2019,03,31,15,24,16.60
2019,03,31,15,25,16.50
2019,03,31,15,26,16.50
2019,03,31,15,27,16.40
2019,03,31,15,28,16.40
2019,03,31,15,29,16.40
2019,03,31,15,30,16.40
2019,03,31,15,31,16.40
2019,03,31,15,32,16.40
2019,03,31,15,33,16.50
2019,03,31,15,34,16.50
2019,03,31,15,35,16.60
2019,03,31,15,36,16.60
2019,03,31,15,37,16.60
2019,03,31,15,38,16.60
2019,03,31,15,39,16.60
2019,03,31,15,40,16.60
2019,03,31,15,41,16.60
2019,03,31,15,42,16.60
2019,03,31,15,43,16.60
2019,03,31,15,44,16.60
2019,03,31,15,45,16.60
2019,03,31,15,46,16.70
2019,03,31,15,47,16.70
2019,03,31,15,48,16.70
2019,03,31,15,49,16.80
2019,03,31,15,50,16.80
2019,03,31,15,51,16.80
2019,03,31,15,52,16.80
2019,03,31,15,53,16.80
2019,03,31,15,54,16.90
2019,03,31,15,55,16.90
2019,03,31,15,56,16.90
2019,03,31,15,57,17.00
2019,03,31,15,58,17.00
2019,03,31,15,59,17.00
2019,03,31,16,00,16.90
2019,03,31,16,01,16.90
2019,03,31,16,02,16.90
2019,03,31,16,03,16.90
2019,03,31,16,04,16.90
2019,03,31,16,05,16.90
2019,03,31,16,06,16.90
2019,03,31,16,07,16.90
2019,03,31,16,08,16.90
2019,03,31,16,09,16.90
2019,03,31,16,10,16.90
2019,03,31,16,11,16.90
2019,03,31,16,12,16.90
2019,03,31,16,13,17.00
2019,03,31,16,14,17.00
2019,03,31,16,15,17.00
2019,03,31,16,16,17.00
2019,03,31,16,17,17.00
2019,03,31,16,18,17.10
2019,03,31,16,19,17.10
2019,03,31,16,20,17.20
2019,03,31,16,21,17.20
2019,03,31,16,22,17.30
2019,03,31,16,23,17.30
2019,03,31,16,24,17.30
2019,03,31,16,25,17.30
2019,03,31,16,26,17.30
2019,03,31,16,27,17.30
2019,03,31,16,28,17.30
2019,03,31,16,29,17.30
2019,03,31,16,30,17.30
2019,03,31,16,31,17.30
2019,03,31,16,32,17.40
2019,03,31,16,33,17.40
2019,03,31,16,34,17.40
2019,03,31,16,35,17.40
2019,03,31,16,36,17.40
2019,03,31,16,37,17.40
2019,03,31,16,38,17.50
2019,03,31,16,39,17.50
2019,03,31,16,40,17.60
2019,03,31,16,41,17.60
2019,03,31,16,42,17.60
2019,03,31,16,43,17.60
2019,03,31,16,44,17.60
2019,03,31,16,45,17.60
2019,03,31,16,46,17.60
2019,03,31,16,47,17.60
2019,03,31,16,48,17.60
2019,03,31,16,49,17.70
2019,03,31,16,50,17.70
2019,03,31,16,51,17.70
2019,03,31,16,52,17.70
2019,03,31,16,53,17.70
2019,03,31,16,54,17.70
2019,03,31,16,55,17.70
2019,03,31,16,56,17.70
2019,03,31,16,57,17.70
2019,03,31,16,58,17.70
2019,03,31,16,59,17.60
2019,03,31,17,00,17.60
2019,03,31,17,01,17.50
2019,03,31,17,02,17.50
2019,03,31,17,03,17.50
2019,03,31,17,04,17.50
2019,03,31,17,05,17.40
2019,03,31,17,06,17.40
2019,03,31,17,07,17.40
2019,03,31,17,08,17.40
2019,03,31,17,09,17.50
2019,03,31,17,10,17.40
2019,03,31,17,11,17.40
2019,03,31,17,12,17.40
2019,03,31,17,13,17.40
2019,03,31,17,14,17.40
2019,03,31,17,15,17.40
2019,03,31,17,16,17.40
2019,03,31,17,17,17.40
2019,03,31,17,18,17.50
2019,03,31,17,19,17.60
2019,03,31,17,20,17.60
2019,03,31,17,21,17.60
2019,03,31,17,22,17.60
2019,03,31,17,23,17.60
2019,03,31,17,24,17.60
2019,03,31,17,25,17.60
2019,03,31,17,26,17.60
2019,03,31,17,27,17.70
2019,03,31,17,28,17.70
2019,03,31,17,29,17.80
2019,03,31,17,30,17.80
2019,03,31,17,31,17.90
2019,03,31,17,32,17.90
2019,03,31,17,33,17.90
2019,03,31,17,34,17.90
2019,03,31,17,35,17.90
2019,03,31,17,36,17.90
2019,03,31,17,37,17.90
2019,03,31,17,38,17.90
2019,03,31,17,39,18.00
2019,03,31,17,40,17.90
2019,03,31,17,41,17.90
2019,03,31,17,42,17.90
2019,03,31,17,43,17.90
2019,03,31,17,44,17.90
2019,03,31,17,45,17.90